www.pogodaiklimat.ru

АРХИВ ПОГОДЫ в Барроу

Время (UTC), дата Ветер
(напр.,м/с)
 
Видим.   Явления Облачность Т
(С)
Тd
(С)
f
(%)
Тe
(С)
Тes
(С)
Комфортность

P
(гПа)

Po
(гПа)
Тmin
(С)
Tmax
(С)
R
(мм)
SD
(см)
23:53 26.09 ЮВ  16 км    ясно  +1.1  -3.3  72  -4  -4    1028.8  1027.1  0.0  +1.1     
00:53 27.09 ЮВ  16 км    10/10 0 м  +0.6  -3.3  75  -4  -4    1028.9  1027.1  0.0  +1.1     
01:53 27.09 ЮВ  16 км    10/10 0 м  +0.6  -3.3  75  -5  -5    1029.1  1027.4  0.0  +1.1     
02:53 27.09 В  16 км    10/10 0 м  0.0  -2.2  85  -5  -5    1029.4  1027.8  0.0  +1.1     
03:39 27.09 В  16 км    10/10 0 м  0.0  -2.2  85  -6  -6    1029.6  1027.8  0.0  +1.1     
04:53 27.09 ЮВ  13 км    10/10 0 м  0.0  -1.7  88  -6  -6    1029.8  1028.1  0.0  +1.1     
05:39 27.09 ЮВ  16 км    10/10 0 м  -0.6  -1.1  96  -6  -6    1030.2  1028.4  -0.6  0.0     
06:19 27.09 В  16 км    10/10 0 м  -0.6  -1.1  96  -6  -6    1030.4  1028.4  -0.6  0.0     
07:53 27.09 В  16 км    10/10 0 м  0.0  -0.6  96  -6  -6    1030.5  1028.8  -0.6  0.0     
08:19 27.09 ЮВ  2 км    ?/?  0.0  0.0  100  -6  -6    1030.7  1028.8  -0.6  0.0     
09:15 27.09 ЮВ  800 м    ?/?  0.0  0.0  100  -6  -6    1030.7  1029.1  -0.6  0.0     
10:13 27.09 ЮВ  2 км    10/10 м  0.0  0.0  100  -5  -5    1030.6  1028.8  -0.6  0.0     
11:23 27.09 ЮВ  16 км    10/10 м  +0.6  +0.6  100  -4  -4    1030.5  1028.8  0.0  +1.7     
13:51 27.09 Ю  16 км    10/10 м  +1.0  +1.0  100  -5  -5    1030.1  1028.4  0.0  +1.7     
14:51 27.09 Ю  16 км    10/10 м  +2.0  +2.0  100  -3  -3    1030.2  1028.4  0.0  +1.7  0.3   
15:53 27.09 Ю  16 км    10/10 м  +1.7  +1.1  96  -3  -3    1030.2  1028.4  0.0  +1.7  0.3   
16:53 27.09 Ю  16 км    10/10 м  +1.7  +1.7  100  -3  -3    1030.3  1028.4  0.0  +1.7  0.3   
17:13 27.09 ЮВ  16 км    10/10 м  +1.7  +1.7  100  -3  -3    1030.4  1028.4  +1.7  +3.3  0.8   
18:22 27.09 СВ  6 км  переохлажденный туман  10/10 м  +3.0  +2.0  93  -1  -1    1031.0  1029.1  +1.7  +3.3  0.8   
19:19 27.09 СВ  13 км  дымка  10/10 м  +2.8  +2.8  100  -2  -2    1031.5  1029.4  +1.7  +3.3  0.8   
20:17 27.09 С  16 км    10/10 м  +3.0  +3.0  100  -2  -2    1032.0  1030.1  +1.7  +3.3  0.8   
21:53 27.09 С  16 км    10/10 м  +2.8  +2.2  96  -3  -3    1032.2  1030.5  +1.7  +3.3  0.8   
22:33 27.09 С  16 км  слабый снег, дымка  10/10 м  +3.0  +2.0  93  -3  -3    1032.2  1030.5  +1.7  +3.3  0.8   
23:53 27.09 В  6 км  дымка  10/10 м  +1.7  +1.1  96  -3  -3    1032.6  1030.8  0.0  +2.8  0.8   
00:28 28.09 СВ  3 км  слабый снег, дымка  10/10 м  +1.7  +1.1  96  -3  -3    1032.6  1030.8  0.0  +2.8  0.8   
01:53 28.09 В  2 км    10/10 м  +0.6  +0.6  100  -4  -4    1033.0  1031.1  0.0  +2.8  0.8   
02:53 28.09 СВ  2 км  слабый снег  10/10 м  +0.6  +0.6  100  -3  -3    1033.4  1031.5  0.0  +2.8  2.5   
03:51 28.09 В  3 км  слабый снег, дымка  10/10 м  0.0  0.0  100  -6  -6    1033.6  1031.8  0.0  +2.8  2.5   
04:14 28.09 В  3 км    10/10 м  0.0  0.0  100  -6  -6    1033.8  1031.8  0.0  +2.8  2.5   
05:34 28.09 В  4 км    10/10 м  -0.6  -0.6  100  -7  -7    1033.9  1032.2  -5.0  0.0     
06:17 28.09 В  3 км    10/10 м  -0.6  -0.6  100  -5  -5    1034.5  1032.5  -5.0  0.0     
07:25 28.09 ЮВ  4 км    10/10 м  -1.1  -1.1  100  -6  -6    1034.8  1033.2  -5.0  0.0     
08:12 28.09 ЮВ  5 км    10/10 м  -1.7  -1.7  100  -7  -7    1035.3  1033.2  -5.0  0.0     
09:30 28.09 В  16 км    2/2 м  -3.3  -3.3  100  -9  -9    1035.6  1033.8  -5.0  0.0     
10:42 28.09 В  16 км    10/10 0 м  -4.4  -5.0  96  -11  -11    1035.4  1033.5  -5.0  0.0     
11:15 28.09 В  16 км    10/10 0 м  -4.4  -5.0  96  -11  -11    1035.5  1033.5  +0.6  +2.2     
12:53 28.09 ЮВ  16 км    10/10 0 м  -2.8  -3.9  92  -8  -8    1035.8  1033.8  +0.6  +2.2     
13:53 28.09 ЮВ  16 км    10/10 0 м  -2.2  -3.3  92  -10  -10    1036.1  1034.2  +0.6  +2.2     
14:53 28.09 В  16 км    10/10 0 м  -2.8  -3.3  96  -9  -9    1036.0  1034.2  +0.6  +2.2     
15:53 28.09 В  14 км    10/10 0 м  -3.0  -3.0  100  -10  -10    1015.2  1028.8  +0.6  +2.2     
16:53 28.09 В  10 км    10/10 0 м  -2.0  -3.0  93  -8  -8    1015.2  1028.8  +0.6  +2.2     
17:53 28.09 ЮВ  6 км    10/10 0 м  -2.0  -3.0  93  -9  -9    1015.2  1028.8  +0.6  +2.2     
18:53 28.09 В  16 км    10/10 0 м  -2.0  -3.0  93  -9  -9    1015.2  1028.8  +0.6  +2.2     
19:53 28.09 В  6 км    10/10 0 м  -2.0  -3.0  93  -9  -9    1015.2  1028.8  +0.6  +2.2     
20:53 28.09 В  6 км    10/10 0 м  -2.0  -3.0  93  -10  -10    1015.2  1028.8  +0.6  +2.2     
21:53 28.09 В  16 км    10/10 0 м  -2.0  -2.0  100  -10  -10    1015.2  1028.8  +0.6  +2.2     
00:03 29.09 В  2 км    10/10 0 м  -1.0  -2.0  93  -9  -9    1015.2  1028.8  +0.6  +2.2     
00:18 29.09 В  400 м  дымка  ?/?  -1.0  -1.0  100  -8  -8    1015.2  1028.8  +0.6  +2.2     

 

Местоположение метеостанции Wiley Post-Will Rogers Memorial Airport: широта 71.2853 долгота -156.7658 высота над уровнем моря 13 м.

В архиве по умолчанию представлена погода в Барроу за последние 1-2 суток. Обновление информации о фактической погоде в базе происходит ежечасно! Архивные данные за месяц целиком и за предыдущие месяцы Вы можете получить, выбрав интересующий диапазон дат из раскрывающегося списка и нажав кнопку "Ввод!".

Внимание! Архив погоды МЕТАР в базе сайта в настоящее время начинается c 1 января 2013 г. Нет смысла пытаться выбрать более раннюю дату.

Внимание! Время в таблицах - всемирное. Для получения местного времени необходимо прибавить поправку, которая в Барроу равна -9 ч.

Ветер - указаны скорость ветра в м/с и направление, откуда дует ветер: С - северный, СВ - северо-восточный, В - восточный, ЮВ - юго-восточный, Ю - южный, ЮЗ - юго-западный, З - западный, СЗ - северо-западный.
Видимость - горизонтальная дальность видимости в метрах или километрах. При видимости от 1 до 10 км при отсутствии осадков обычно наблюдается дымка, при ухудшении видимости до 1 км и менее - туман. В сухую погоду видимость может ухудшаться дымом, пылью или мглою.
Атмосферные явления - указаны явления, наблюдавшиеся в указанный момент времени.
Облачность - указаны через наклонную черту верхняя и нижняя облачность в баллах и высота нижней границы облаков в метрах. Внимание: облачность, как и прочие метеорологические величины в США измеряются автоматическими метеостанциями. Указанные значения в баллах носят условный характер и показывают процент времени, в течение которого, в среднем, лазерный луч высотомера отражался от облаков обратно.
T - Температура воздуха - температура, измеренная на высоте 2 м над землей.
Td - Температура точки росы - температура, при понижении до которой содержащийся в воздухе водяной пар достигнет насыщения.
f - Относительная влажность воздуха - влажноcть воздуха, измеренная на высоте 2 м над землей.
Te - Эффективная температура - температура, которую ощущает одетый по сезону человек в тени. Характеристика душности погоды. При расчете учитывается влияние влажности воздуха и скорости ветра на теплоощущения человека.
Tes - Эффективная температура на солнце - температура, которую ощущает человек, с поправкой на солнечный нагрев. Характеристика знойности погоды. Зависит от высоты солнца над горизонтом, облачности и скорости ветра. Ночью, в пасмурную погоду, а также при ветре 12 м/с и более поправка равна нулю.
P - Атмосферное давление - приведенное к уровню моря атмосферное давление.
Po - Атмосферное давление - измеренное на уровне метеостанции атмосферное давление.
Tmin - Минимальная температура - минимум температуры воздуха на высоте 2 м над землей.
Tmax - Максимальная температура - максимум температуры воздуха на высоте 2 м над землей.
R - Количество осадков - Количество выпавших осадков за 3 или 6 часов, мм.
SD - Снежный покров - Высота снежного покрова, см.